[[{"header":{"parameterUnit":"m.s-1","parameterCategory":1,"la1":30.2991,"la2":30.254,"lo1":-89.0895,"lo2":-89.0444,"dy":0.0017,"dx":0.0017,"nx":28,"ny":28,"refTime":"2024-08-16T21:00:00:Z","depth":0,"parameterNumber":2,"parameterNumberName":"U-component_of_WINDS"},"data":[0,0,0,0,0,0,0,0,0,0,0,0,0,0,0,0,0,0,0,0,0,0,0,0,0,0,0,0,0,0,0,0,0,0,0,0,0,0,0,0,0,0,0,0,0,0,0,0,0,0,0,0,0,0,0,0,0,0,0.9344,0.9345,0,0.9436,0.9437,0.9438,0.9493,0.9493,0.9494,0.9494,0.959,0.9593,0.9595,0,0,0,0,0,0,0,0,0,0,0,0,0,0.9216,0.9218,0.9343,0.9345,0.9346,0.9436,0.9437,0.9438,0.9493,0.9493,0.9494,0.9494,0.9589,0.9592,0.9595,0,0,0,0,0,0,0,0,0,0,0,0,0,0.9286,0.9218,0.9343,0.9384,0.9388,0.9436,0.9437,0.9439,0.9493,0.9493,0.9494,0.9494,0.9589,0.9592,0.9595,0.961,0,0,0.9606,0.9608,0,0,0,0,0,0,0,0,0.9282,0.9291,0.9377,0.9381,0.9386,0.9453,0.9428,0.9496,0.9493,0.9453,0.9494,0.9494,0.9545,0.9552,0.9568,0.9614,0.9619,0.9606,0.9609,0.961,0.9611,0,0,0,0,0,0,0,0.9277,0.9287,0.938,0.9378,0.9384,0.9398,0.9408,0.9441,0.9496,0.9457,0.9461,0.9471,0.9547,0.9565,0.9571,0.962,0.9606,0.9609,0.9612,0.9613,0.9683,0.9683,0,0,0,0,0,0,0.9265,0.9282,0.9377,0.9383,0.9334,0.94,0.9412,0.9432,0.9496,0.9506,0.9471,0.9473,0.9559,0.9567,0.9575,0.9596,0.961,0.9613,0.9615,0.9683,0.9683,0.9683,0,0,0,0,0,0,0.9262,0.9273,0.9373,0.9334,0.9348,0.9402,0.9424,0.9433,0.9451,0.9506,0.9516,0.9478,0.9559,0.957,0.9601,0.96,0.9615,0.9618,0.9684,0.9683,0.9683,0.9638,0,0,0,0,0,0,0.9259,0.9272,0.9278,0.9334,0.935,0.9397,0.9424,0.9435,0.9456,0.9461,0.9516,0.9526,0.956,0.9595,0.9604,0.9605,0.9621,0.9684,0.9683,0.9683,0.964,0.9636,0.9633,0,0,0,0,0,0.9254,0.9262,0.9278,0.9289,0.9358,0.9397,0.9406,0.9446,0.9456,0.9463,0.9498,0.9524,0.9598,0.9598,0.9608,0.961,0.9684,0.9683,0.9683,0.9642,0.9637,0.9633,0,0,0,0,0,0,0.9205,0.927,0.9288,0.9314,0.935,0.9406,0.9416,0.944,0.9473,0.9476,0.9524,0.9536,0.9562,0.959,0.9588,0.9628,0.9644,0.9646,0.9609,0.9605,0.9602,0.9595,0.9624,0,0,0,0,0,0.9197,0.9223,0.9279,0.9296,0.9313,0.9361,0.938,0.9407,0.9446,0.9461,0.9499,0.9536,0.9568,0.9588,0.9621,0.9644,0.9657,0.9651,0.9647,0.9644,0.9645,0.966,0.9658,0.9681,0.9681,0.9681,0,0,0.9181,0.922,0.9233,0.9287,0.9318,0.9344,0.9373,0.94,0.942,0.9466,0.9497,0.9526,0.9571,0.9598,0.9612,0.9622,0.9642,0.9644,0.9641,0.9644,0.9659,0.9657,0.9655,0.968,0.968,0.9681,0,0,0.9165,0.9197,0.9215,0.9246,0.9291,0.9323,0.9328,0.9381,0.9402,0.9434,0.9468,0.9494,0.9547,0.9578,0.96,0.9596,0.9621,0.9606,0.9588,0.9602,0.96,0.9599,0.9597,0.9596,0.9606,0.9606,0.9606,0,0.914,0.9181,0.9222,0.9247,0.927,0.9311,0.933,0.9358,0.9412,0.9427,0.9437,0.9505,0.9539,0.9573,0.9572,0.9589,0.9596,0.96,0.9597,0.9596,0.9595,0.9594,0.9594,0.9604,0.9604,0.9605,0.9605,0,0.9147,0.9175,0.9184,0.9235,0.9259,0.9281,0.9326,0.9345,0.937,0.9401,0.9434,0.9475,0.9516,0.9527,0.9552,0.9565,0.957,0.9587,0.9605,0.959,0.959,0.959,0.9601,0.9602,0.9602,0.9603,0,0,0.9103,0.9177,0.9179,0.9203,0.9257,0.9279,0.9303,0.9343,0.9359,0.9395,0.9416,0.9461,0.9478,0.9503,0.9532,0.9544,0.9538,0.9561,0.9562,0.9555,0.9556,0.9542,0.9541,0.9555,0.9555,0.9555,0.9552,0,0.9096,0.914,0.9178,0.9208,0.9235,0.9275,0.9295,0.9331,0.936,0.9387,0.9421,0.9451,0.9471,0.9487,0.95,0.9536,0.9539,0.9537,0.9576,0.9577,0.9563,0.9541,0.9526,0.9521,0.9552,0.9552,0.9552,0,0.9093,0.9127,0.9159,0.9211,0.9223,0.9241,0.9281,0.9306,0.9347,0.9368,0.9396,0.9426,0.9454,0.9468,0.9507,0.9504,0.9523,0.9543,0.9543,0.9548,0.9563,0.9545,0.9521,0.952,0.9553,0.9553,0.9553,0,0.9057,0.9111,0.9138,0.9157,0.9217,0.9229,0.9255,0.9296,0.9318,0.9353,0.9367,0.9405,0.9426,0.9455,0.9494,0.9501,0.9529,0.9547,0.9547,0.9546,0.9551,0.955,0.9529,0.9563,0.9563,0.9563,0.9563,0,0.9045,0.9063,0.9123,0.9139,0.9161,0.9205,0.9226,0.9255,0.9292,0.9315,0.9352,0.9373,0.9424,0.9451,0.9482,0.951,0.9519,0.9537,0.9545,0.9533,0.9531,0.9546,0.9547,0.9563,0.9563,0.9563,0.9563,0,0.9009,0.9049,0.9081,0.9135,0.915,0.9163,0.921,0.9228,0.926,0.9288,0.9298,0.9347,0.9381,0.9424,0.9472,0.9493,0.9516,0.9529,0.9502,0.9507,0.9505,0.9504,0.9492,0.9493,0.9526,0.9526,0.9525,0,0.8998,0.9013,0.9069,0.9087,0.9111,0.914,0.9162,0.9206,0.9227,0.9275,0.9287,0.9324,0.9356,0.9408,0.9449,0.9486,0.9499,0.9492,0.9505,0.9493,0.9499,0.9497,0.9499,0.9489,0.9488,0.9488,0.9487,0,0.8975,0.8994,0.9024,0.9062,0.9087,0.9118,0.9152,0.9164,0.9215,0.9238,0.9272,0.9297,0.9345,0.9381,0.9423,0.9451,0.9477,0.9483,0.9485,0.9474,0.9457,0.9466,0.9493,0.9483,0.9484,0.9484,0.9484,0.9484,0.8951,0.8967,0.9008,0.9041,0.907,0.91,0.9119,0.9153,0.9183,0.9225,0.925,0.9284,0.9325,0.9384,0.941,0.9438,0.9448,0.9451,0.9451,0.9451,0.9448,0.9453,0.9445,0.9446,0.9446,0.9446,0.9446,0,0.893,0.8958,0.8988,0.9033,0.9059,0.9081,0.9119,0.9139,0.9169,0.9205,0.9235,0.9275,0.931,0.9353,0.9391,0.9405,0.9418,0.9414,0.9413,0.9419,0.9437,0.9431,0.9402,0.9402,0.9402,0.9402,0.9402,0.9402,0.8922,0.8949,0.8973,0.9015,0.9044,0.9077,0.9097,0.9125,0.9154,0.9196,0.9226,0.9253,0.9293,0.9334,0.9367,0.9379,0.9391,0.9383,0.9398,0.9414,0.9418,0.9421,0.9416,0.9385,0.9385,0.9378,0.9378,0.9378]},{"header":{"parameterUnit":"m.s-1","parameterCategory":1,"la1":30.2991,"la2":30.254,"lo1":-89.0895,"lo2":-89.0444,"dy":0.0017,"dx":0.0017,"nx":28,"ny":28,"refTime":"2024-08-16T21:00:00:Z","depth":0,"parameterNumber":3,"parameterNumberName":"V-component_of_WINDS"},"data":[0,0,0,0,0,0,0,0,0,0,0,0,0,0,0,0,0,0,0,0,0,0,0,0,0,0,0,0,0,0,0,0,0,0,0,0,0,0,0,0,0,0,0,0,0,0,0,0,0,0,0,0,0,0,0,0,0,0,0.3762,0.3762,0,0.3779,0.3779,0.378,0.3777,0.3777,0.3777,0.3776,0.3795,0.3796,0.3797,0,0,0,0,0,0,0,0,0,0,0,0,0,0.3727,0.3728,0.3762,0.3762,0.3762,0.3779,0.3779,0.378,0.3777,0.3777,0.3777,0.3776,0.3795,0.3796,0.3797,0,0,0,0,0,0,0,0,0,0,0,0,0,0.3743,0.3728,0.3762,0.3763,0.3763,0.3779,0.3779,0.378,0.3777,0.3777,0.3777,0.3776,0.3795,0.3796,0.3797,0.3813,0,0,0.3801,0.3801,0,0,0,0,0,0,0,0,0.3742,0.3744,0.3763,0.3763,0.3763,0.3776,0.3774,0.3791,0.3778,0.3772,0.3776,0.3776,0.3789,0.3791,0.3795,0.3814,0.3815,0.3801,0.3801,0.3802,0.3802,0,0,0,0,0,0,0,0.3741,0.3744,0.3769,0.3763,0.3763,0.3763,0.3765,0.3777,0.3783,0.3773,0.3772,0.3774,0.3789,0.3794,0.3795,0.3815,0.3801,0.3802,0.3802,0.3803,0.3847,0.3847,0,0,0,0,0,0,0.374,0.3743,0.3768,0.3769,0.3751,0.3764,0.3766,0.3772,0.3783,0.3784,0.3775,0.3774,0.3792,0.3794,0.3796,0.3815,0.3802,0.3803,0.3804,0.3846,0.3847,0.3847,0,0,0,0,0,0,0.3739,0.3742,0.3767,0.3756,0.3759,0.3765,0.3772,0.3773,0.3777,0.3784,0.3786,0.3778,0.3792,0.3795,0.3808,0.3815,0.3804,0.3805,0.3846,0.3846,0.3847,0.3852,0,0,0,0,0,0,0.3738,0.3742,0.3747,0.3756,0.376,0.3779,0.3772,0.3773,0.3779,0.3779,0.3788,0.3789,0.3792,0.3807,0.381,0.3817,0.3806,0.3845,0.3846,0.3847,0.3851,0.3853,0.3854,0,0,0,0,0,0.3737,0.3749,0.3748,0.3751,0.3767,0.378,0.3782,0.3784,0.378,0.3786,0.379,0.3789,0.3814,0.3808,0.3811,0.3819,0.3845,0.3846,0.3847,0.3851,0.3852,0.3854,0,0,0,0,0,0,0.3741,0.375,0.3749,0.3764,0.3771,0.3779,0.3787,0.3786,0.3795,0.3794,0.3797,0.3799,0.3813,0.3817,0.3811,0.3834,0.3829,0.3831,0.3831,0.3833,0.3834,0.3832,0.3806,0,0,0,0,0,0.3744,0.3753,0.376,0.3773,0.3776,0.3781,0.3787,0.3788,0.3795,0.3798,0.3804,0.3811,0.3821,0.3827,0.3836,0.3852,0.3854,0.3859,0.386,0.3861,0.3863,0.3871,0.3873,0.3851,0.3851,0.3851,0,0,0.375,0.3756,0.3761,0.3774,0.3779,0.3789,0.3784,0.3794,0.3801,0.38,0.3813,0.3817,0.3826,0.3841,0.3847,0.3845,0.3869,0.3863,0.3863,0.3864,0.3872,0.3874,0.3876,0.3851,0.3851,0.3851,0,0,0.3765,0.3771,0.3781,0.3787,0.3795,0.3798,0.3801,0.3809,0.3811,0.3824,0.3824,0.3832,0.3849,0.3855,0.386,0.3877,0.3876,0.388,0.3887,0.3895,0.3896,0.3898,0.3903,0.3905,0.3881,0.3881,0.3881,0,0.3771,0.3785,0.3787,0.3797,0.3803,0.3802,0.3812,0.3818,0.3829,0.3833,0.383,0.385,0.3856,0.3871,0.3875,0.388,0.3882,0.3878,0.3896,0.3897,0.3899,0.3904,0.3906,0.3882,0.3881,0.3881,0.3881,0,0.3792,0.3802,0.3809,0.3819,0.3825,0.3836,0.3839,0.3846,0.3846,0.385,0.3863,0.387,0.388,0.3884,0.3885,0.3899,0.3897,0.3895,0.389,0.3901,0.3906,0.3908,0.3882,0.3882,0.3882,0.3882,0,0,0.381,0.3821,0.3824,0.3828,0.3837,0.3844,0.3854,0.3864,0.3869,0.3877,0.3885,0.3899,0.3896,0.3902,0.3904,0.3911,0.3923,0.3908,0.3908,0.3909,0.3939,0.394,0.3942,0.3922,0.3923,0.3923,0.3938,0,0.3826,0.3843,0.3845,0.3861,0.387,0.3869,0.3878,0.3884,0.3888,0.3895,0.3899,0.3909,0.3905,0.3909,0.3915,0.392,0.3928,0.3919,0.393,0.393,0.3927,0.3945,0.3946,0.3959,0.394,0.394,0.394,0,0.3846,0.3853,0.387,0.3877,0.388,0.3888,0.3897,0.3905,0.3912,0.3914,0.392,0.392,0.3931,0.3925,0.394,0.3933,0.3938,0.3941,0.3941,0.3942,0.3935,0.3945,0.3964,0.3965,0.3943,0.3943,0.3943,0,0.3857,0.3871,0.3882,0.3886,0.3895,0.39,0.3904,0.3911,0.3916,0.3924,0.3927,0.3936,0.3941,0.3948,0.3951,0.3947,0.3965,0.396,0.3967,0.3967,0.397,0.397,0.3989,0.3975,0.3975,0.3975,0.3975,0,0.3873,0.3883,0.3887,0.3894,0.3905,0.3907,0.3918,0.3922,0.3928,0.3936,0.3936,0.3943,0.3947,0.3955,0.3958,0.3969,0.3971,0.3973,0.3973,0.3973,0.3972,0.3975,0.3974,0.3975,0.3975,0.3975,0.3975,0,0.3887,0.389,0.3902,0.3909,0.3911,0.3919,0.3925,0.3932,0.3935,0.3945,0.3947,0.3952,0.3961,0.3965,0.3977,0.3978,0.3991,0.3991,0.3988,0.3988,0.3995,0.3994,0.4016,0.4019,0.4003,0.4003,0.4003,0,0.3897,0.3904,0.3912,0.3917,0.3921,0.3929,0.3934,0.3937,0.3942,0.395,0.3956,0.3965,0.3973,0.3987,0.3992,0.4001,0.4001,0.4008,0.4002,0.4001,0.4,0.3999,0.4,0.4009,0.4009,0.4009,0.401,0,0.3914,0.3915,0.3922,0.393,0.3936,0.3943,0.3949,0.3953,0.3957,0.3963,0.3972,0.3977,0.3989,0.3998,0.4007,0.4011,0.4011,0.4011,0.4013,0.4012,0.401,0.4011,0.3991,0.4011,0.4011,0.4011,0.4011,0.401,0.3925,0.3932,0.3938,0.3946,0.3951,0.3956,0.3963,0.3966,0.3974,0.3983,0.3984,0.3994,0.4001,0.4013,0.4017,0.4025,0.4023,0.4026,0.4027,0.4027,0.4027,0.4009,0.4027,0.4027,0.4027,0.4027,0.4027,0,0.3942,0.3945,0.3953,0.3961,0.3967,0.3966,0.3973,0.3979,0.3987,0.3993,0.4,0.401,0.4019,0.4024,0.4033,0.4038,0.4038,0.404,0.404,0.404,0.4029,0.4026,0.404,0.404,0.404,0.404,0.404,0.404,0.3951,0.3961,0.3963,0.3976,0.3979,0.3988,0.3992,0.3998,0.4002,0.4014,0.402,0.4024,0.403,0.4039,0.4046,0.4048,0.4051,0.4053,0.4054,0.4043,0.4041,0.404,0.4037,0.4054,0.4054,0.4065,0.4065,0.4065]}]]